UAL2039 KLAX-KBZN

Flight info

Callsign UAL2039
Flight time 1h 57m
Altitude 37000
Route ORCKA5 LAS Q70 BLIPP Q842 PICHO/N0434F380 SABAT LOSST1
Aircraft A320/M-SDE3FGHIRWY/LB1

Departure

Time 2026-04-21 16:40
Airport Los Angeles International Airport (KLAX)

Arrival

Time 2026-04-21 18:37
Airport Bozeman Yellowstone International Airport (KBZN)
Time Latitude Longitude Altitude Speed Heading
2026-04-21 15:49 33.94070 -118.40017 96 ft 0 kts 80°
2026-04-21 16:25 33.94068 -118.40026 93 ft 4 kts 80°
2026-04-21 16:25 33.94064 -118.40052 93 ft 4 kts 88°
2026-04-21 16:25 33.94070 -118.40072 93 ft 4 kts 168°
2026-04-21 16:25 33.94062 -118.40071 93 ft 4 kts 173°
2026-04-21 16:26 33.94043 -118.40068 95 ft 0 kts 173°
2026-04-21 16:32 33.94013 -118.40064 95 ft 9 kts 173°
2026-04-21 16:32 33.93943 -118.40053 96 ft 11 kts 173°
2026-04-21 16:32 33.93884 -118.40008 98 ft 11 kts 109°
2026-04-21 16:32 33.93890 -118.39889 96 ft 20 kts 83°
2026-04-21 16:33 33.93908 -118.39706 95 ft 23 kts 83°
2026-04-21 16:33 33.93929 -118.39505 95 ft 25 kts 83°
2026-04-21 16:33 33.93952 -118.39285 93 ft 28 kts 83°
2026-04-21 16:33 33.93973 -118.39074 94 ft 25 kts 83°
2026-04-21 16:34 33.93995 -118.38863 94 ft 26 kts 83°
2026-04-21 16:34 33.94015 -118.38667 96 ft 23 kts 83°
2026-04-21 16:34 33.94036 -118.38467 97 ft 25 kts 83°
2026-04-21 16:34 33.94056 -118.38267 96 ft 23 kts 83°
2026-04-21 16:35 33.94074 -118.38096 93 ft 14 kts 83°
2026-04-21 16:35 33.94079 -118.38032 93 ft 3 kts 95°
2026-04-21 16:35 33.94078 -118.38028 93 ft 0 kts 102°
2026-04-21 16:38 33.94073 -118.38018 93 ft 5 kts 120°
2026-04-21 16:38 33.94035 -118.37994 93 ft 8 kts 167°
2026-04-21 16:38 33.93992 -118.37997 93 ft 4 kts 216°
2026-04-21 16:38 33.93982 -118.38036 94 ft 6 kts 263°
2026-04-21 16:39 33.93976 -118.38098 94 ft 15 kts 263°
2026-04-21 16:39 33.93933 -118.38515 99 ft 84 kts 263°
2026-04-21 16:39 33.93836 -118.39453 97 ft 139 kts 263°
2026-04-21 16:39 33.93700 -118.40774 150 ft 176 kts 263°
2026-04-21 16:40 33.93537 -118.42243 752 ft 176 kts 261°
2026-04-21 16:40 33.93415 -118.43707 1450 ft 175 kts 266°
2026-04-21 16:40 33.93359 -118.45185 2058 ft 181 kts 261°
2026-04-21 16:40 33.92988 -118.46713 2358 ft 202 kts 246°
2026-04-21 16:41 33.92638 -118.47795 2564 ft 215 kts 246°
2026-04-21 16:41 33.91858 -118.50197 3014 ft 246 kts 247°
2026-04-21 16:41 33.91225 -118.52178 3680 ft 257 kts 247°
2026-04-21 16:41 33.90574 -118.54192 4626 ft 260 kts 248°
2026-04-21 16:42 33.89906 -118.56215 5625 ft 259 kts 247°
2026-04-21 16:42 33.89237 -118.58225 6642 ft 258 kts 247°
2026-04-21 16:42 33.88573 -118.60229 7577 ft 258 kts 248°
2026-04-21 16:42 33.87882 -118.62226 8466 ft 259 kts 238°
2026-04-21 16:43 33.86702 -118.63850 9372 ft 260 kts 215°
2026-04-21 16:43 33.85041 -118.64712 10291 ft 265 kts 192°
2026-04-21 16:43 33.83184 -118.64594 11130 ft 275 kts 167°
2026-04-21 16:43 33.81504 -118.63407 11922 ft 291 kts 141°
2026-04-21 16:44 33.80433 -118.61262 12670 ft 313 kts 112°
2026-04-21 16:44 33.80320 -118.58560 13178 ft 345 kts 84°
2026-04-21 16:44 33.81269 -118.55777 13345 ft 378 kts 59°
2026-04-21 16:44 33.83056 -118.53358 13758 ft 395 kts 41°
2026-04-21 16:45 33.85199 -118.51293 14323 ft 402 kts 39°
2026-04-21 16:45 33.87430 -118.49158 14916 ft 407 kts 39°
2026-04-21 16:45 33.89658 -118.47029 15471 ft 411 kts 39°
2026-04-21 16:45 33.91878 -118.44834 16025 ft 415 kts 44°
2026-04-21 16:46 33.93836 -118.42265 16581 ft 417 kts 55°
2026-04-21 16:46 33.95479 -118.39432 17135 ft 421 kts 58°
2026-04-21 16:46 33.97136 -118.36506 17692 ft 425 kts 58°
2026-04-21 16:46 33.98832 -118.33511 18283 ft 429 kts 58°
2026-04-21 16:47 34.00501 -118.30567 18786 ft 433 kts 58°
2026-04-21 16:47 34.02229 -118.27519 19316 ft 436 kts 58°
2026-04-21 16:47 34.03949 -118.24486 19866 ft 440 kts 58°
2026-04-21 16:47 34.05680 -118.21433 20400 ft 443 kts 58°
2026-04-21 16:48 34.06836 -118.19392 20751 ft 445 kts 58°
2026-04-21 16:48 34.09162 -118.15284 21448 ft 450 kts 58°
2026-04-21 16:48 34.10932 -118.12157 21989 ft 453 kts 58°
2026-04-21 16:48 34.12710 -118.09009 22510 ft 456 kts 58°
2026-04-21 16:49 34.14502 -118.05831 22999 ft 458 kts 58°
2026-04-21 16:49 34.16294 -118.02645 23553 ft 460 kts 58°
2026-04-21 16:49 34.18094 -117.99442 24009 ft 462 kts 58°
2026-04-21 16:49 34.19316 -117.97268 24296 ft 464 kts 58°
2026-04-21 16:50 34.21136 -117.94032 24704 ft 467 kts 58°
2026-04-21 16:50 34.22963 -117.90782 25111 ft 469 kts 58°
2026-04-21 16:50 34.24806 -117.87502 25556 ft 473 kts 58°
2026-04-21 16:50 34.26655 -117.84207 25945 ft 475 kts 58°
2026-04-21 16:51 34.28513 -117.80890 26327 ft 478 kts 58°
2026-04-21 16:51 34.30377 -117.77553 26706 ft 480 kts 58°
2026-04-21 16:51 34.32251 -117.74185 27041 ft 483 kts 58°
2026-04-21 16:51 34.34109 -117.70846 27364 ft 486 kts 58°
2026-04-21 16:52 34.36039 -117.67414 27739 ft 488 kts 57°
2026-04-21 16:52 34.38005 -117.64048 28074 ft 491 kts 56°
2026-04-21 16:52 34.39992 -117.60746 28396 ft 493 kts 55°
2026-04-21 16:52 34.42036 -117.57394 28721 ft 495 kts 54°
2026-04-21 16:53 34.44085 -117.54032 29062 ft 498 kts 55°
2026-04-21 16:53 34.46138 -117.50634 29442 ft 500 kts 55°
2026-04-21 16:53 34.48190 -117.47205 29771 ft 503 kts 56°
2026-04-21 16:53 34.50237 -117.43756 30119 ft 505 kts 56°
2026-04-21 16:54 34.52288 -117.40290 30413 ft 507 kts 56°
2026-04-21 16:54 34.54345 -117.36813 30772 ft 507 kts 56°
2026-04-21 16:54 34.56395 -117.33347 31166 ft 506 kts 55°
2026-04-21 16:54 34.58449 -117.29881 31556 ft 505 kts 55°
2026-04-21 16:55 34.60499 -117.26415 31956 ft 505 kts 55°
2026-04-21 16:55 34.62551 -117.22946 32340 ft 504 kts 55°
2026-04-21 16:55 34.64594 -117.19489 32730 ft 504 kts 55°
2026-04-21 16:55 34.66634 -117.16032 33040 ft 503 kts 54°
2026-04-21 16:56 34.68669 -117.12580 33511 ft 501 kts 54°
2026-04-21 16:56 34.70694 -117.09140 33969 ft 500 kts 54°
2026-04-21 16:56 34.72717 -117.05701 34331 ft 499 kts 54°
2026-04-21 16:56 34.74736 -117.02267 34649 ft 500 kts 54°
2026-04-21 16:57 34.76754 -116.98828 34943 ft 500 kts 54°
2026-04-21 16:57 34.78777 -116.95376 35237 ft 500 kts 53°
2026-04-21 16:57 34.80774 -116.91967 35523 ft 501 kts 53°
2026-04-21 16:57 34.82794 -116.88517 35816 ft 501 kts 53°
2026-04-21 16:58 34.84816 -116.85060 36078 ft 500 kts 53°
2026-04-21 16:58 34.86824 -116.81623 36477 ft 497 kts 53°
2026-04-21 16:58 34.88824 -116.78191 36789 ft 496 kts 53°
2026-04-21 16:58 34.90819 -116.74763 37001 ft 497 kts 53°
2026-04-21 16:59 34.92967 -116.71464 37057 ft 498 kts 45°
2026-04-21 16:59 34.97704 -116.65247 37033 ft 501 kts 44°
2026-04-21 17:00 35.02458 -116.59019 37014 ft 502 kts 44°
2026-04-21 17:00 35.06396 -116.53829 37003 ft 499 kts 45°
2026-04-21 17:01 35.11875 -116.46569 36990 ft 496 kts 45°
2026-04-21 17:01 35.16550 -116.40365 36994 ft 496 kts 45°
2026-04-21 17:02 35.21224 -116.34159 37007 ft 496 kts 46°
2026-04-21 17:02 35.25904 -116.27952 37007 ft 496 kts 46°
2026-04-21 17:03 35.30541 -116.21783 37001 ft 495 kts 47°
2026-04-21 17:03 35.35192 -116.15566 37010 ft 494 kts 47°
2026-04-21 17:04 35.39836 -116.09355 37017 ft 494 kts 47°
2026-04-21 17:04 35.44474 -116.03145 37011 ft 493 kts 47°
2026-04-21 17:05 35.49103 -115.96943 37016 ft 493 kts 47°
2026-04-21 17:05 35.53723 -115.90733 37013 ft 492 kts 47°
2026-04-21 17:06 35.58333 -115.84531 37022 ft 491 kts 47°
2026-04-21 17:06 35.62928 -115.78323 37021 ft 491 kts 47°
2026-04-21 17:07 35.67502 -115.72084 37025 ft 491 kts 48°
2026-04-21 17:07 35.72040 -115.65811 37024 ft 491 kts 48°
2026-04-21 17:08 35.76586 -115.59531 37025 ft 490 kts 48°
2026-04-21 17:08 35.81093 -115.53314 37032 ft 490 kts 48°
2026-04-21 17:09 35.87884 -115.43924 37031 ft 489 kts 49°
2026-04-21 17:09 35.92406 -115.37647 37024 ft 489 kts 49°
2026-04-21 17:10 35.96925 -115.31377 36997 ft 489 kts 49°
2026-04-21 17:10 36.01447 -115.25100 37038 ft 488 kts 49°
2026-04-21 17:11 36.05946 -115.18822 37015 ft 488 kts 49°
2026-04-21 17:11 36.10784 -115.12949 37015 ft 487 kts 40°
2026-04-21 17:12 36.15897 -115.07455 36980 ft 487 kts 41°
2026-04-21 17:12 36.20979 -115.01979 36972 ft 487 kts 41°
2026-04-21 17:13 36.26105 -114.96451 36941 ft 489 kts 40°
2026-04-21 17:13 36.31249 -114.90896 36926 ft 491 kts 40°
2026-04-21 17:14 36.36398 -114.85313 36911 ft 492 kts 40°
2026-04-21 17:14 36.41553 -114.79706 36900 ft 493 kts 40°
2026-04-21 17:15 36.46717 -114.74099 36908 ft 493 kts 40°
2026-04-21 17:15 36.51856 -114.68519 36894 ft 494 kts 41°
2026-04-21 17:16 36.57026 -114.62881 36896 ft 494 kts 41°
2026-04-21 17:16 36.62188 -114.57224 36896 ft 494 kts 41°
2026-04-21 17:17 36.67356 -114.51571 36894 ft 494 kts 40°
2026-04-21 17:17 36.72691 -114.46201 36897 ft 492 kts 31°
2026-04-21 17:18 36.78500 -114.41652 36903 ft 493 kts 31°
2026-04-21 17:18 36.84313 -114.37094 36902 ft 493 kts 31°
2026-04-21 17:19 36.90113 -114.32539 36920 ft 492 kts 31°
2026-04-21 17:19 36.95896 -114.27983 36921 ft 491 kts 31°
2026-04-21 17:20 37.01678 -114.23420 36944 ft 491 kts 31°
2026-04-21 17:20 37.07456 -114.18861 36938 ft 491 kts 32°
2026-04-21 17:21 37.13230 -114.14287 36940 ft 491 kts 32°
2026-04-21 17:21 37.18963 -114.09738 36948 ft 491 kts 32°
2026-04-21 17:22 37.24729 -114.05152 36942 ft 490 kts 32°
2026-04-21 17:22 37.30483 -114.00571 36962 ft 489 kts 32°
2026-04-21 17:23 37.36239 -113.95992 36970 ft 488 kts 32°
2026-04-21 17:23 37.41968 -113.91412 36968 ft 488 kts 32°
2026-04-21 17:24 37.47694 -113.86828 36973 ft 487 kts 32°
2026-04-21 17:24 37.53408 -113.82251 36972 ft 487 kts 32°
2026-04-21 17:25 37.59130 -113.77666 36970 ft 487 kts 33°
2026-04-21 17:25 37.64842 -113.73069 36958 ft 487 kts 33°
2026-04-21 17:26 37.70554 -113.68457 36964 ft 487 kts 33°
2026-04-21 17:26 37.76256 -113.63847 36959 ft 487 kts 33°
2026-04-21 17:27 37.81961 -113.59222 36962 ft 487 kts 33°
2026-04-21 17:27 37.87660 -113.54611 36954 ft 486 kts 33°
2026-04-21 17:28 37.93444 -113.50170 36948 ft 486 kts 25°
2026-04-21 17:28 37.99774 -113.47178 36940 ft 486 kts 18°
2026-04-21 17:29 38.06170 -113.44384 36956 ft 486 kts 18°
2026-04-21 17:29 38.12531 -113.41590 36929 ft 486 kts 19°
2026-04-21 17:30 38.18918 -113.38774 36938 ft 486 kts 19°
2026-04-21 17:30 38.25308 -113.35955 36962 ft 486 kts 19°
2026-04-21 17:31 38.31702 -113.33138 36992 ft 486 kts 19°
2026-04-21 17:31 38.38090 -113.30317 37016 ft 486 kts 19°
2026-04-21 17:32 38.44482 -113.27486 37035 ft 487 kts 19°
2026-04-21 17:32 38.50881 -113.24640 37039 ft 486 kts 19°
2026-04-21 17:33 38.57273 -113.21794 37037 ft 487 kts 19°
2026-04-21 17:33 38.63639 -113.18948 36999 ft 488 kts 19°
2026-04-21 17:34 38.70053 -113.16091 36925 ft 488 kts 19°
2026-04-21 17:34 38.76463 -113.13224 36922 ft 488 kts 19°
2026-04-21 17:35 38.82886 -113.10332 36906 ft 489 kts 19°
2026-04-21 17:35 38.89298 -113.07444 36912 ft 488 kts 19°
2026-04-21 17:36 38.94635 -113.05043 36918 ft 488 kts 19°
2026-04-21 17:36 39.01047 -113.02157 36922 ft 488 kts 19°
2026-04-21 17:37 39.07447 -112.99267 36919 ft 488 kts 19°
2026-04-21 17:37 39.13844 -112.96360 36920 ft 488 kts 19°
2026-04-21 17:38 39.20245 -112.93454 36915 ft 487 kts 19°
2026-04-21 17:38 39.26643 -112.90549 36921 ft 488 kts 19°
2026-04-21 17:39 39.33047 -112.87631 36918 ft 487 kts 19°
2026-04-21 17:39 39.39446 -112.84712 36979 ft 487 kts 19°
2026-04-21 17:40 39.45840 -112.81785 36983 ft 487 kts 19°
2026-04-21 17:40 39.52185 -112.78884 36989 ft 487 kts 19°
2026-04-21 17:41 39.58571 -112.75952 36963 ft 487 kts 19°
2026-04-21 17:41 39.64956 -112.73008 36947 ft 486 kts 19°
2026-04-21 17:42 39.71326 -112.70069 36941 ft 486 kts 19°
2026-04-21 17:42 39.77705 -112.67127 36937 ft 486 kts 19°
2026-04-21 17:43 39.84086 -112.64171 36935 ft 487 kts 20°
2026-04-21 17:43 39.90464 -112.61214 36934 ft 487 kts 20°
2026-04-21 17:44 39.96884 -112.58391 36948 ft 487 kts 13°
2026-04-21 17:44 40.03560 -112.56870 36937 ft 487 kts
2026-04-21 17:45 40.10255 -112.55443 36956 ft 488 kts
2026-04-21 17:45 40.16949 -112.54000 36961 ft 488 kts
2026-04-21 17:46 40.23647 -112.52567 36948 ft 488 kts
2026-04-21 17:46 40.30348 -112.51131 36917 ft 488 kts
2026-04-21 17:47 40.37058 -112.49696 36958 ft 488 kts
2026-04-21 17:47 40.43766 -112.48254 36976 ft 489 kts
2026-04-21 17:48 40.50484 -112.46800 36997 ft 489 kts
2026-04-21 17:48 40.57199 -112.45342 37006 ft 489 kts
2026-04-21 17:49 40.63921 -112.43882 37027 ft 489 kts
2026-04-21 17:49 40.70642 -112.42426 37021 ft 489 kts
2026-04-21 17:50 40.77323 -112.40971 36991 ft 489 kts
2026-04-21 17:50 40.84044 -112.39501 36912 ft 489 kts
2026-04-21 17:51 40.90758 -112.38041 36894 ft 490 kts
2026-04-21 17:51 40.97489 -112.36568 36902 ft 490 kts
2026-04-21 17:52 41.04220 -112.35087 36923 ft 490 kts
2026-04-21 17:52 41.10959 -112.33595 36940 ft 491 kts
2026-04-21 17:53 41.17689 -112.32112 36966 ft 491 kts
2026-04-21 17:53 41.24429 -112.30624 36976 ft 491 kts
2026-04-21 17:54 41.31118 -112.29150 36973 ft 490 kts
2026-04-21 17:54 41.37845 -112.27659 36959 ft 490 kts
2026-04-21 17:55 41.44574 -112.26165 36937 ft 490 kts
2026-04-21 17:55 41.51295 -112.24670 37027 ft 489 kts
2026-04-21 17:56 41.58007 -112.23168 37030 ft 489 kts
2026-04-21 17:56 41.64721 -112.21668 37026 ft 489 kts
2026-04-21 17:57 41.71434 -112.20168 37013 ft 489 kts
2026-04-21 17:57 41.78149 -112.18659 36994 ft 489 kts
2026-04-21 17:58 41.84864 -112.17144 36987 ft 489 kts
2026-04-21 17:58 41.91570 -112.15626 36980 ft 489 kts
2026-04-21 17:59 41.98273 -112.14115 36969 ft 489 kts
2026-04-21 17:59 42.04980 -112.12598 36947 ft 488 kts
2026-04-21 18:00 42.11667 -112.11072 36938 ft 487 kts
2026-04-21 18:00 42.18365 -112.09549 36944 ft 488 kts
2026-04-21 18:01 42.25058 -112.08023 36965 ft 488 kts
2026-04-21 18:01 42.31701 -112.06499 36959 ft 488 kts
2026-04-21 18:02 42.38395 -112.04974 36972 ft 488 kts
2026-04-21 18:02 42.45090 -112.03438 36979 ft 488 kts
2026-04-21 18:03 42.51799 -112.01891 36970 ft 489 kts
2026-04-21 18:03 42.58515 -112.00346 36968 ft 490 kts
2026-04-21 18:04 42.65237 -111.98792 36964 ft 490 kts
2026-04-21 18:04 42.71963 -111.97230 36966 ft 490 kts
2026-04-21 18:05 42.78642 -111.95687 36968 ft 490 kts
2026-04-21 18:05 42.85369 -111.94124 36986 ft 490 kts
2026-04-21 18:06 42.92098 -111.92564 36987 ft 490 kts
2026-04-21 18:06 42.98825 -111.90988 36979 ft 490 kts
2026-04-21 18:07 43.05556 -111.89420 36972 ft 490 kts
2026-04-21 18:07 43.12277 -111.87838 36978 ft 490 kts
2026-04-21 18:08 43.18984 -111.86246 36972 ft 489 kts
2026-04-21 18:08 43.25689 -111.84664 36990 ft 488 kts
2026-04-21 18:09 43.32386 -111.83086 37001 ft 488 kts
2026-04-21 18:09 43.39031 -111.81519 36999 ft 488 kts
2026-04-21 18:10 43.45716 -111.79937 37018 ft 487 kts
2026-04-21 18:10 43.52400 -111.78349 37003 ft 487 kts
2026-04-21 18:11 43.59078 -111.76757 36981 ft 487 kts
2026-04-21 18:11 43.65761 -111.75162 37005 ft 487 kts
2026-04-21 18:12 43.72441 -111.73565 37030 ft 487 kts
2026-04-21 18:12 43.79116 -111.71958 37026 ft 487 kts
2026-04-21 18:13 43.85783 -111.70351 37032 ft 486 kts
2026-04-21 18:13 43.92447 -111.68751 36964 ft 486 kts
2026-04-21 18:14 43.99065 -111.67158 36414 ft 485 kts
2026-04-21 18:14 44.02381 -111.65981 36150 ft 487 kts 19°
2026-04-21 18:14 44.05503 -111.64145 35898 ft 488 kts 24°
2026-04-21 18:15 44.08559 -111.62222 35634 ft 489 kts 23°
2026-04-21 18:15 44.11667 -111.60263 34858 ft 493 kts 23°
2026-04-21 18:15 44.14842 -111.58261 34036 ft 497 kts 23°
2026-04-21 18:15 44.17943 -111.56304 33521 ft 492 kts 23°
2026-04-21 18:16 44.21050 -111.54346 32993 ft 488 kts 23°
2026-04-21 18:16 44.24139 -111.52400 32440 ft 485 kts 23°
2026-04-21 18:16 44.27198 -111.50471 31921 ft 481 kts 23°
2026-04-21 18:16 44.30245 -111.48549 31380 ft 478 kts 23°
2026-04-21 18:17 44.33261 -111.46642 30846 ft 475 kts 23°
2026-04-21 18:17 44.36271 -111.44737 30317 ft 472 kts 23°
2026-04-21 18:17 44.39251 -111.42847 29745 ft 469 kts 23°
2026-04-21 18:17 44.42208 -111.40968 29251 ft 464 kts 22°
2026-04-21 18:18 44.45137 -111.39105 28769 ft 459 kts 22°
2026-04-21 18:18 44.48035 -111.37264 28263 ft 455 kts 22°
2026-04-21 18:18 44.50903 -111.35438 27804 ft 451 kts 22°
2026-04-21 18:18 44.53748 -111.33624 27348 ft 447 kts 22°
2026-04-21 18:19 44.56572 -111.31820 26887 ft 444 kts 22°
2026-04-21 18:19 44.59339 -111.30050 26438 ft 441 kts 22°
2026-04-21 18:19 44.62123 -111.28268 26007 ft 439 kts 22°
2026-04-21 18:19 44.64898 -111.26490 25565 ft 437 kts 22°
2026-04-21 18:20 44.67659 -111.24720 25120 ft 435 kts 22°
2026-04-21 18:20 44.70413 -111.22958 24674 ft 433 kts 22°
2026-04-21 18:20 44.73154 -111.21200 24212 ft 432 kts 22°
2026-04-21 18:20 44.75886 -111.19444 23743 ft 432 kts 22°
2026-04-21 18:21 44.78597 -111.17693 23207 ft 422 kts 22°
2026-04-21 18:21 44.81240 -111.15983 22743 ft 415 kts 22°
2026-04-21 18:21 44.83841 -111.14301 22266 ft 408 kts 22°
2026-04-21 18:21 44.86407 -111.12644 21785 ft 403 kts 22°
2026-04-21 18:22 44.88953 -111.11000 21303 ft 402 kts 22°
2026-04-21 18:22 44.91492 -111.09360 20821 ft 400 kts 22°
2026-04-21 18:22 44.94018 -111.07725 20335 ft 399 kts 22°
2026-04-21 18:22 44.96535 -111.06096 19842 ft 397 kts 22°
2026-04-21 18:23 44.99043 -111.04471 19372 ft 396 kts 22°
2026-04-21 18:23 45.01546 -111.02844 18868 ft 395 kts 22°
2026-04-21 18:23 45.04045 -111.01215 18452 ft 393 kts 22°
2026-04-21 18:23 45.06491 -110.99620 18320 ft 381 kts 22°
2026-04-21 18:24 45.08859 -110.98073 18191 ft 370 kts 22°
2026-04-21 18:24 45.11185 -110.96669 17947 ft 357 kts 14°
2026-04-21 18:24 45.12766 -110.96117 17732 ft 351 kts
2026-04-21 18:24 45.15174 -110.95924 17376 ft 343 kts 352°
2026-04-21 18:25 45.17502 -110.96450 16998 ft 336 kts 342°
2026-04-21 18:25 45.20520 -110.97458 16455 ft 336 kts 342°
2026-04-21 18:25 45.22787 -110.98212 16211 ft 333 kts 342°
2026-04-21 18:25 45.25042 -110.98963 15987 ft 333 kts 342°
2026-04-21 18:26 45.26566 -110.99472 15831 ft 332 kts 342°
2026-04-21 18:26 45.28817 -111.00223 15628 ft 332 kts 342°
2026-04-21 18:26 45.31060 -111.00972 15423 ft 331 kts 342°
2026-04-21 18:26 45.33275 -111.01714 15218 ft 331 kts 342°
2026-04-21 18:27 45.35545 -111.02471 14987 ft 331 kts 342°
2026-04-21 18:27 45.37750 -111.03206 14782 ft 329 kts 342°
2026-04-21 18:27 45.39978 -111.03954 14581 ft 328 kts 342°
2026-04-21 18:27 45.42194 -111.04698 14370 ft 328 kts 343°
2026-04-21 18:28 45.44402 -111.05438 14156 ft 325 kts 343°
2026-04-21 18:28 45.46603 -111.06174 13955 ft 324 kts 343°
2026-04-21 18:28 45.48793 -111.06908 13754 ft 323 kts 343°
2026-04-21 18:28 45.50977 -111.07642 13519 ft 322 kts 343°
2026-04-21 18:29 45.53153 -111.08374 13305 ft 320 kts 343°
2026-04-21 18:29 45.55311 -111.09100 13126 ft 319 kts 342°
2026-04-21 18:29 45.57473 -111.09830 12896 ft 319 kts 343°
2026-04-21 18:29 45.59643 -111.10566 12424 ft 322 kts 342°
2026-04-21 18:30 45.61715 -111.11651 12005 ft 312 kts 328°
2026-04-21 18:30 45.63491 -111.13332 11595 ft 305 kts 315°
2026-04-21 18:30 45.65028 -111.15411 11164 ft 304 kts 312°
2026-04-21 18:30 45.66546 -111.17506 10758 ft 299 kts 312°
2026-04-21 18:31 45.68022 -111.19532 10369 ft 290 kts 312°
2026-04-21 18:31 45.69442 -111.21474 9998 ft 282 kts 312°
2026-04-21 18:31 45.70837 -111.23386 9680 ft 275 kts 313°
2026-04-21 18:31 45.72202 -111.25264 9311 ft 271 kts 313°
2026-04-21 18:32 45.73560 -111.27139 8929 ft 270 kts 313°
2026-04-21 18:32 45.74895 -111.28981 8581 ft 262 kts 313°
2026-04-21 18:32 45.76193 -111.30770 8238 ft 255 kts 313°
2026-04-21 18:32 45.77517 -111.32416 7915 ft 249 kts 327°
2026-04-21 18:33 45.79100 -111.33311 7636 ft 243 kts 349°
2026-04-21 18:33 45.80746 -111.33310 7363 ft 238 kts 12°
2026-04-21 18:33 45.82250 -111.32463 7117 ft 231 kts 33°
2026-04-21 18:33 45.83418 -111.30944 6835 ft 226 kts 54°
2026-04-21 18:34 45.84131 -111.29011 6558 ft 213 kts 75°
2026-04-21 18:34 45.84349 -111.26986 6274 ft 199 kts 93°
2026-04-21 18:34 45.84133 -111.25101 6014 ft 184 kts 110°
2026-04-21 18:34 45.83611 -111.23545 5796 ft 164 kts 124°
2026-04-21 18:35 45.83157 -111.22713 5647 ft 157 kts 134°
2026-04-21 18:35 45.82132 -111.21275 5362 ft 152 kts 136°
2026-04-21 18:35 45.81376 -111.20225 5185 ft 151 kts 136°
2026-04-21 18:35 45.80619 -111.19179 5015 ft 151 kts 136°
2026-04-21 18:36 45.79863 -111.18125 4819 ft 152 kts 136°
2026-04-21 18:36 45.79109 -111.17062 4612 ft 153 kts 135°
2026-04-21 18:36 45.78348 -111.16000 4494 ft 150 kts 135°
2026-04-21 18:36 45.77695 -111.15091 4483 ft 109 kts 136°
2026-04-21 18:37 45.77289 -111.14532 4483 ft 47 kts 136°
2026-04-21 18:37 45.77110 -111.14283 4479 ft 26 kts 136°
2026-04-21 18:37 45.77013 -111.14251 4480 ft 16 kts 224°
2026-04-21 18:37 45.76936 -111.14366 4481 ft 11 kts 226°
2026-04-21 18:38 45.76944 -111.14465 4481 ft 12 kts 316°
2026-04-21 18:38 45.77010 -111.14556 4481 ft 14 kts 316°
2026-04-21 18:38 45.77085 -111.14661 4481 ft 16 kts 316°
2026-04-21 18:38 45.77169 -111.14778 4483 ft 18 kts 316°
2026-04-21 18:39 45.77263 -111.14907 4481 ft 19 kts 316°
2026-04-21 18:39 45.77363 -111.15047 4484 ft 21 kts 316°
2026-04-21 18:39 45.77472 -111.15198 4481 ft 22 kts 316°
2026-04-21 18:39 45.77588 -111.15359 4484 ft 24 kts 316°
2026-04-21 18:40 45.77702 -111.15519 4481 ft 20 kts 316°
2026-04-21 18:40 45.77807 -111.15664 4481 ft 22 kts 316°
2026-04-21 18:40 45.77880 -111.15765 4481 ft 22 kts 316°
2026-04-21 18:40 45.78012 -111.15948 4481 ft 13 kts 316°
2026-04-21 18:41 45.78048 -111.16021 4481 ft 7 kts 261°
2026-04-21 18:41 45.78018 -111.16078 4481 ft 7 kts 254°
2026-04-21 18:41 45.78037 -111.16134 4483 ft 5 kts 288°
2026-04-21 18:41 45.78018 -111.16173 4481 ft 5 kts 225°
2026-04-21 18:42 45.78006 -111.16190 4481 ft 2 kts 225°
2026-04-21 18:42 45.77999 -111.16200 4484 ft 0 kts 226°